Location: Unspecified
(0.0000°N, 0.0000°E)
Time: 03:23:25
(UTC+00:00)

AO-109 - Pass Details

Date: 30 October 2021
Orbit: 473 x 523 km, 60.7° (Epoch: 27 November)

Event Time Altitude Azimuth Distance (km) Brightness Sun altitude
Rises 18:57:35 0° 332° (NNW) 2,524 ? -17.9°
Reaches altitude 10° 18:59:42 10° 331° (NNW) 1,655 ? -18.4°
Maximum altitude 19:03:24 80° 244° (WSW) 500 ? -19.3°
Drops below altitude 10° 19:07:11 10° 157° (SSE) 1,692 ? -20.2°
Enters shadow 19:08:01 - 156° (SSE) 2,028 ? -20.4°
